Location: ????????
(38.0046°N, 23.9172°E)
Time: 17:43:57
(UTC+00:00)

Daily predictions for brighter satellites

Satellite Brightness Start Highest point End
(mag) Time Altitude Azimuth Time Altitude Azimuth Time Altitude Azimuth
Meteor 2-17 Rocket 4.5 18:12:27 10° N 18:18:34 79° E 18:24:37 10° S
Cosmos 1238 Rocket 4.3 18:13:44 10° N 18:18:47 40° E 18:24:28 10° SSE
MetOp-A 3.5 18:15:21 10° SSE 18:19:21 69° ENE 18:23:42 10° N
Atlas Centaur 2 2.6 18:16:47 10° SW 18:20:56 28° S 18:24:27 10° ESE
USA 306 3.2 18:18:03 10° NW 18:22:08 58° NE 18:26:13 10° ESE
IRS-1C Rocket 4.4 18:19:27 10° S 18:24:40 70° WSW 18:29:56 10° NNW
CZ-4B R/B 2.3 18:23:23 10° NE 18:25:42 22° E 18:28:00 10° SSE
Cosmos 1300 Rocket 4.2 18:22:02 10° NNW 18:26:25 60° W 18:30:46 10° S
KORONAS-FOTON 4.4 18:23:23 10° SSW 18:27:12 62° W 18:31:05 10° N
Cosmos 2297 3.8 18:22:06 10° NNW 18:27:51 84° WSW 18:33:31 10° SSE
SL-16 R/B 4.0 18:23:19 10° SW 18:28:32 37° WNW 18:33:48 10° N
APEX 4.4 18:22:31 10° S 18:28:34 53° ESE 18:33:49 10° NE
BREEZE-M DEB (TANK) 3.5 18:27:47 10° NNW 18:29:39 24° NNE 18:31:53 10° E
Okean 2 4.0 18:26:44 10° SSW 18:30:49 62° W 18:34:56 10° N
SL-14 R/B 3.7 18:29:00 10° SSE 18:32:36 40° E 18:36:15 10° NNE
Okean 1 Rocket 4.0 18:29:05 10° NNE 18:33:07 32° ENE 18:37:05 10° SE
ARGOS Delta rocket 3.8 18:29:43 10° N 18:34:32 88° WNW 18:39:03 10° SSW
Cosmos 1626 2.9 18:33:47 10° SSW 18:37:20 54° W 18:40:56 10° N
SPOT 1/Viking Rocket 4.0 18:33:46 10° SE 18:38:36 44° ENE 18:43:28 10° N
H-2A R/B 3.3 18:40:30 10° S 18:44:12 45° W 18:47:53 10° NNW
USA 307 2.8 18:41:57 10° NW 18:46:08 80° NE 18:49:37 14° SE
Intercosmos 25 3.6 18:44:16 10° NNW 18:47:24 54° W 18:50:45 10° S
IGS 5A 4.3 18:44:14 10° S 18:48:14 48° W 18:52:15 10° NNW
Cosmos 1943 Rocket 3.4 18:43:29 10° NW 18:48:42 39° WSW 18:53:51 10° S
Cosmos 1300 3.6 18:48:39 10° NNE 18:52:05 32° ENE 18:54:30 16° SE
Cosmos 1943 3.2 18:46:29 10° SSW 18:52:10 88° ESE 18:57:51 10° NNE
Cosmos 1908 3.7 18:51:42 10° NNW 18:55:28 59° W 18:59:17 10° S
Cosmos 1603 3.7 18:50:23 10° SSW 18:56:03 83° ESE 19:01:48 10° NNE
Cosmos 1745 Rocket 4.3 18:51:20 10° N 18:57:18 51° E 19:02:28 14° SSE
IRS-1A Rocket 4.4 18:51:39 10° SSE 18:57:32 76° ENE 19:03:27 10° N
Meteosat 1 Rocket2 4.4 18:58:07 10° SW 19:00:45 17° SSW 19:02:06 14° SSE
Cosmos 1953 2.2 18:58:15 10° N 19:02:11 75° E 19:05:28 14° SSE
Cosmos 1975 Rocket 3.9 19:02:57 17° SE 19:05:44 33° E 19:09:44 10° NNE
Ariane Rocket 3.0 19:02:11 14° SSE 19:06:32 70° ENE 19:11:37 10° N
Helios 1A Rocket 4.4 19:07:41 16° ESE 19:09:33 22° ENE 19:12:43 10° NNE
CARTOSAT-1 3.9 19:07:29 19° SE 19:10:19 49° ENE 19:14:30 10° N
H-2A R/B 3.3 19:09:02 10° N 19:13:11 44° WNW 19:17:24 10° SW
Resurs 01 Rocket 1.9 19:09:26 11° S 19:13:37 67° WSW 19:18:03 10° NNW
IRAS Rocket 4.2 19:09:03 10° NNE 19:14:42 83° ESE 19:20:16 10° SSW
USA 308 3.2 19:13:03 10° NW 19:17:07 53° SW 19:19:28 23° SSE
USA 305 3.6 19:13:22 10° WNW 19:17:17 41° SW 19:19:41 20° S
Lacrosse 4 Rocket 3.4 19:14:24 10° WSW 19:18:08 31° WNW 19:21:51 10° N
X-37B 2.4 19:16:42 10° SSW 19:17:27 15° SSW 19:17:27 15° SSW
DELTA 2 R/B (1) 3.6 19:13:47 10° WNW 19:19:25 85° NNE 19:24:01 16° E
ATLAS 5 CENTAUR R/B 3.6 19:10:52 10° NW 19:22:52 51° NE 19:25:35 21° ESE
Tiangong 1.5 19:21:47 10° W 19:24:56 62° NNW 19:27:57 11° ENE
Cosmos 2315 Rocket 4.2 19:20:25 16° SSE 19:25:29 57° E 19:31:40 10° NNE
USA 267 3.2 19:19:12 10° NE 19:25:47 82° SE 19:32:20 10° SW
Terra 3.1 19:23:59 20° ESE 19:26:02 27° ENE 19:30:00 10° NNE
Meteor 1-24 Rocket 3.9 19:24:01 22° SSE 19:27:07 45° E 19:32:11 10° NNE
BREEZE-M DEB (TANK) 4.3 19:26:09 10° W 19:28:47 23° SSW 19:31:36 16° S
ATLAS 3B CENTAUR R/B 4.2 19:16:26 10° W 19:29:07 43° SSW 19:34:58 22° SE
SL-24 R/B 4.0 19:27:50 22° S 19:30:29 83° WSW 19:34:50 10° NNW
Cosmos 2369 Rocket 3.0 19:28:24 10° NW 19:33:44 47° WSW 19:38:04 15° S
Cosmos 1371 Rocket 4.0 19:30:51 17° S 19:34:42 58° ESE 19:39:51 10° NNE
Hubble Space Telescope 3.0 19:33:32 10° SW 19:34:50 12° SSW 19:34:50 12° SSW
Spot 2 Rocket 3.7 19:35:16 28° SE 19:37:46 55° ENE 19:42:44 10° N
Cosmos 1455 3.7 19:36:37 10° NNE 19:39:37 22° ENE 19:39:56 22° E
SPOT 3 Rocket 3.6 19:42:02 25° S 19:45:07 81° WSW 19:50:20 10° NNW
Cosmos 1709 Rocket 3.9 19:40:56 10° N 19:47:07 79° E 19:50:45 27° SSE
ARIANE 5 R/B 3.7 19:46:05 27° E 19:47:17 31° ENE 19:51:13 10° N
ERBS 2.6 19:46:20 10° NW 19:49:13 43° SW 19:49:20 43° SW
Cosmos 2084 3.3 19:50:31 49° SE 19:50:38 49° ESE 19:54:21 10° NE
Cosmos 2251 Rocket 4.0 19:47:35 10° NNW 19:52:48 56° WSW 19:55:48 25° S
ATLAS 2AS CENTAUR R/B 3.9 19:47:01 10° NNW 19:53:12 31° NE 19:57:27 17° E
Lacrosse 5 rocket 3.6 19:51:31 10° N 19:53:59 16° NNE 19:56:17 11° ENE
Cosmos 1624 Rocket 3.9 19:52:40 19° SSW 19:56:29 86° ESE 20:01:44 10° NNE
CZ-4B R/B 4.3 19:56:02 10° NW 19:56:58 11° WNW 19:57:55 10° W
NOSS 3-4 (A) 4.0 19:51:57 10° NW 19:59:12 79° WSW 20:03:36 30° SSE
NOSS 3-4 (C) 4.0 19:52:03 10° NW 19:59:17 80° WSW 20:03:39 30° SSE
Cosmos 1833 Rocket 4.4 20:02:59 16° E 20:02:59 16° E 20:05:33 10° ENE
Cosmos 1190 Rocket 4.0 20:00:21 10° NNW 20:05:41 70° ENE 20:07:23 43° SE
GENESIS II 4.1 20:04:15 10° NNW 20:08:19 83° ENE 20:08:51 65° SE
Atlas Centaur 2 3.0 20:05:40 10° WSW 20:07:33 19° SW 20:07:33 19° SW
Cosmos 407 Rocket 3.7 20:07:44 10° NNW 20:12:51 64° WSW 20:14:39 39° S
SPOT 5 2.9 20:12:47 40° SSW 20:14:13 63° WSW 20:18:37 10° NNW
Meteor 2-5 Rocket 4.3 20:11:33 15° SSW 20:15:57 53° WNW 20:21:22 10° N
Cosmos 2056 Rocket 3.9 20:11:49 15° SSW 20:16:10 63° WNW 20:21:33 10° NNE
Cosmos 1455 Rocket 3.7 20:11:59 10° NNW 20:16:12 50° W 20:17:34 35° SW
Cosmos 1025 Rocket 4.3 20:20:19 19° SW 20:22:44 36° WNW 20:26:42 10° N
Cosmos 1271 Rocket 2.6 20:22:14 10° N 20:26:12 80° ENE 20:26:12 80° ENE
ERS-1 Rocket 3.3 20:24:37 39° SSW 20:26:15 58° W 20:31:13 10° NNW
Cosmos 1420 Rocket 4.4 20:25:17 22° SW 20:28:33 60° WNW 20:33:46 10° N
Cosmos 1607 4.4 20:23:52 10° SW 20:30:02 59° NW 20:36:10 10° NNE
Cosmos 676 Rocket 4.0 20:26:50 10° NNW 20:32:09 72° ENE 20:33:08 57° SE
Cosmos 1536 Rocket 3.4 20:36:41 79° SW 20:36:55 84° W 20:41:15 10° N
Helios 1A Rocket 4.5 20:43:49 24° WSW 20:44:28 25° W 20:47:52 10° NW
Cosmos 724 4.3 20:41:31 29° SW 20:44:37 78° WNW 20:50:26 10° NNE
Lacrosse 5 3.2 20:42:21 10° NNW 20:46:57 32° NE 20:48:46 25° ENE
Cosmos 2184 Rocket 3.9 20:41:25 10° N 20:47:36 82° E 20:49:03 55° SSE
TSX-5 4.1 20:51:10 73° NE 20:51:10 73° NE 20:55:46 10° NNE
Cosmos 1954 Rocket 4.1 20:48:23 10° NNW 20:53:37 65° WSW 20:54:15 59° SW
Meteor 1-21 Rocket 4.0 20:53:24 65° SE 20:53:59 71° E 20:59:34 10° NNE
SAR-Lupe-4 4.5 20:52:14 10° N 20:55:03 48° NNW 20:55:03 48° NNW
Cosmos 1850 Rocket 4.5 20:53:22 10° N 20:58:23 46° ENE 20:58:45 45° E
Tiangong 3.6 20:59:01 10° WNW 21:00:12 20° WNW 21:00:12 20° WNW
Cosmos 1703 4.1 21:03:35 47° NW 21:03:35 47° NW 21:06:51 10° N
Terra 3.2 21:02:52 27° WSW 21:03:39 29° W 21:07:48 10° NW
Cosmos 2228 3.3 21:00:47 10° N 21:04:22 62° N 21:04:22 62° N
DELTA 2 R/B (1) 4.2 21:00:22 10° W 21:04:45 41° SW 21:04:45 41° SW
ALOS 2 4.2 21:09:14 24° ENE 21:09:14 24° ENE 21:12:29 10° NNE
Cosmos 1455 4.3 21:12:07 10° NW 21:14:42 20° W 21:14:42 20° W
Cosmos 1980 Rocket 4.2 21:11:24 10° N 21:15:21 19° NE 21:17:29 16° E
Cosmos 1331 Rocket 3.9 21:17:14 80° E 21:17:14 80° E 21:22:27 10° NNE
Cosmos 1726 Rocket 4.4 21:13:11 10° N 21:16:32 43° NE 21:16:32 43° NE
Cosmos 1452 Rocket 4.0 21:17:03 46° WSW 21:18:09 55° WNW 21:23:19 10° N
Cosmos 1697 Rocket 3.5 21:14:56 10° N 21:20:10 38° ENE 21:20:59 36° E
ADEOS Rocket 4.0 21:18:38 35° ESE 21:20:35 43° ENE 21:27:26 10° N
NOSS 2-1 (C) 4.2 21:16:30 10° NNW 21:21:32 88° ENE 21:22:11 73° SE
ARIANE 5 R/B 4.4 21:23:37 22° W 21:23:44 22° W 21:27:13 10° NW
RESURS DK-1 3.7 21:20:06 10° N 21:23:13 33° NE 21:23:13 33° NE
Spot 4 4.1 21:25:19 61° NE 21:25:19 61° NE 21:29:40 10° N
Cosmos 2181 Rocket 4.3 21:30:29 49° E 21:30:40 49° E 21:36:34 10° NNE
NOSS 2-1 (D) 4.2 21:26:50 10° NW 21:31:55 78° WSW 21:32:17 75° SSW
ASTEX 1 3.7 21:27:04 10° N 21:31:59 59° W 21:32:06 59° W
Lacrosse 5 rocket 2.7 21:29:23 10° NW 21:31:47 35° NW 21:31:47 35° NW
Meteor 2-1 Rocket 4.1 21:29:03 10° NNW 21:34:33 78° W 21:34:38 77° WSW
Cosmos 1110 Rocket 4.2 21:35:00 60° W 21:35:21 62° WNW 21:40:36 10° NNE
USA 234 3.1 21:38:52 65° SSE 21:39:54 81° SW 21:46:29 10° NW
Cosmos 1302 Rocket 4.4 21:40:58 53° ENE 21:40:58 53° ENE 21:45:16 10° NNE
Cosmos 2058 Rocket 4.0 21:36:09 10° N 21:39:28 43° NE 21:39:28 43° NE
Cosmos 2360 4.5 21:37:00 10° NNW 21:42:39 58° ENE 21:43:02 57° E
Cosmos 1892 Rocket 4.2 21:45:13 53° NNW 21:45:13 53° NNW 21:48:45 10° N
ATLAS 2AS CENTAUR R/B 2.8 21:37:43 10° NW 21:44:26 54° WSW 21:44:51 53° SW
Cosmos 1833 Rocket 3.0 21:44:37 53° W 21:45:25 59° WNW 21:50:58 10° NNE
GP-B 3.8 21:42:02 10° N 21:45:39 49° NW 21:45:39 49° NW
Cosmos 1656 3.9 21:41:51 10° NNW 21:46:54 56° W 21:46:54 56° W
Cosmos 2082 Rocket 2.2 21:59:43 70° ENE 21:59:43 70° ENE 22:05:00 10° NNE
Cosmos 962 Rocket 4.5 21:53:24 10° NNW 21:59:34 69° W 22:00:01 66° WSW
Meteor 1-27 4.3 22:03:38 10° N 22:09:02 63° ENE 22:09:02 63° ENE
Cosmos 2344 4.4 22:04:37 10° NNW 22:14:10 81° ENE 22:20:42 35° SE
PSLV R/B 4.4 22:17:57 10° NNE 22:21:43 53° NE 22:21:43 53° NE
COSMOS 2406 3.8 22:25:00 45° W 22:25:47 47° WNW 22:31:22 10° N
Cosmos 968 Rocket 3.6 22:23:56 10° NNW 22:28:30 69° NNW 22:28:30 69° NNW
Lacrosse 5 3.3 22:25:12 10° NW 22:27:56 28° WNW 22:27:56 28° WNW
Cosmos 1932 4.3 22:34:04 77° ESE 22:34:04 77° ESE 22:40:19 10° NNE
SL-8 Rocket 4.5 22:33:21 10° NNW 22:39:16 46° W 22:39:30 46° W
Cosmos 2369 3.7 22:35:50 10° NNW 22:41:14 76° WNW 22:41:14 76° WNW
SJ 16-02 3.7 22:40:06 10° NNE 22:42:51 16° ENE 22:43:51 15° ENE
Cosmos 2218 Rocket 4.3 22:36:46 10° NNW 22:42:57 53° W 22:43:17 52° WSW
ALOS 2 4.5 22:46:37 22° WNW 22:46:37 22° WNW 22:48:50 10° NW
Cosmos 1825 4.3 22:46:54 23° NW 22:46:54 23° NW 22:48:43 10° NNW
SL-16 R/B 3.9 22:42:16 10° N 22:47:00 26° ENE 22:49:42 19° E
Meteor 2-20 Rocket 4.4 22:48:18 69° ESE 22:48:35 70° E 22:54:40 10° NNE
Cosmos 1758 Rocket 4.5 22:50:05 46° N 22:50:05 46° N 22:53:11 10° N
Cosmos 1606 4.5 22:49:13 10° N 22:51:30 30° NNE 22:51:30 30° NNE
Cosmos 1867 4.1 22:50:03 10° NNW 22:55:25 54° NE 22:56:08 50° E
SL-08 R/B 4.4 22:50:47 10° N 22:57:13 83° W 22:57:45 76° SSW
Cosmos 1980 Rocket 2.4 22:54:12 10° NNW 22:59:14 59° WNW 22:59:14 59° WNW
Cosmos 1992 Rocket 4.4 23:01:48 54° WNW 23:01:48 54° WNW 23:06:47 10° N
Cosmos 1697 Rocket 4.1 22:59:16 10° NW 23:02:42 25° W 23:02:42 25° W
ADEOS Rocket 4.2 23:05:35 33° WSW 23:06:04 34° W 23:12:35 10° NNW
Cosmos 2058 3.9 23:08:17 45° NNE 23:08:17 45° NNE 23:11:16 10° N
ADEOS II 4.4 23:06:47 10° ENE 23:08:55 12° E 23:10:01 12° ESE
Cosmos 2221 4.0 23:14:11 10° NNE 23:18:00 29° ENE 23:18:01 29° ENE
Cosmos 1503 Rocket 4.2 23:13:22 10° NNW 23:18:40 64° ENE 23:18:57 63° E
Aureole 1 Rocket 4.3 23:16:11 10° NNW 23:23:13 82° WSW 23:25:14 55° S
Cosmos 2278 3.8 23:22:12 10° NNW 23:27:31 62° W 23:27:31 62° W
Cosmos 2322 Rocket 3.3 23:23:49 10° N 23:29:09 41° ENE 23:31:55 25° ESE
Cosmos 1934 Rocket 3.8 23:28:06 10° N 23:34:11 88° W 23:34:59 70° S
Geosat 4.2 23:35:56 60° WNW 23:35:56 60° WNW 23:40:20 10° NNW
Cosmos 1953 Rocket 4.0 23:37:53 59° NNW 23:37:53 59° NNW 23:41:40 10° N
Cosmos 1339 Rocket 4.3 23:36:32 67° SSW 23:37:25 83° W 23:43:41 10° N
CZ-2D R/B 2.6 23:33:23 10° NNE 23:38:22 45° E 23:38:50 44° ESE
Cosmos 1535 Rocket 4.5 23:32:09 10° N 23:38:33 83° E 23:39:55 58° SSE
Meteor 2-11 Rocket 4.4 23:32:34 10° N 23:38:44 82° E 23:39:51 61° SSE
MOZ.5/SAFIR/RUBIN 5/SL-8 3.8 23:39:28 77° ENE 23:39:28 77° ENE 23:44:12 10° N
SL-4 R/B 4.3 23:42:05 14° E 23:42:05 14° E 23:42:54 10° ENE
Cosmos 2082 Rocket 4.3 23:41:31 13° W 23:43:57 17° NW 23:47:34 10° NNW
Meteor 2-2 Rocket 4.2 23:40:39 10° NNW 23:46:36 73° W 23:47:17 66° SW
ATLAS 5 CENTAUR R/B 2.9 23:51:04 26° NW 23:51:04 26° NW 23:54:17 10° N
Cosmos 1833 4.3 23:51:00 54° SE 23:51:41 58° ESE 23:57:11 10° NNE
IDEFIX/ARIANE 42P 4.0 23:48:09 10° NE 23:52:35 28° E 23:54:02 24° ESE
